Flag for U.S.A. Weather past 2 weeks in Denver, Colorado, U.S.A.

Now
54 °F

Broken clouds.


Feels Like: 52 °F
Forecast: 43 / 74 °F
Wind: 8 mph from Southeast

Location: Buckley Air Force Base

Current Time: Oct 22, 2014 at 7:45:48 PM

Latest Report: Oct 22, 2014 at 6:58 PM


Visibility: 10 mi

Pressure: 30.04 "Hg

Humidity: 67%

Dew point: 43 °F

Location of DenverLocation

Historic Weather in Denver — Graph

°F

Denver temperature yesterday

Maximum temperature yesterday: 74 °F (at 2:58 PM)
Minimum temperature yesterday: 52 °F (at 4:58 AM)
Average temperature yesterday: 61 °F

Past Weeks' High & Low Weather Summary

 TemperatureHumidityPressure
High78 °F (Oct 15, 1:58 PM)100% (Oct 9, 5:58 PM)30.21 "Hg (Oct 9, 5:58 PM)
Low36 °F (Oct 13, 5:58 AM)14% (Oct 15, 1:58 PM)29.59 "Hg (Oct 12, 3:58 AM)
Average55 °F55%29.97 "Hg
* Reported Oct 7 6:58 PM — Oct 22 6:58 PM, Denver, Weather by CustomWeather, © 2014

Note: Actual official high and low records may vary slightly from our data, if they occured in-between our weather recording intervals... More about our weather records

Advertising

Denver weather history for previous 24 hours

 ConditionsComfort  
Time TempWeatherWind HumidityBarometerVisibility
6:58 PM
Oct 22
54 °FBroken clouds.8 mph67%30.04 "Hg10 mi
5:58 PM59 °FPartly sunny.6 mph50%30.01 "Hg10 mi
4:58 PM65 °FScattered showers. Broken clouds.9 mph38%29.95 "Hg10 mi
3:58 PM68 °FScattered showers. Broken clouds.8 mph34%29.93 "Hg10 mi
2:58 PM69 °FScattered showers. Broken clouds.10 mph31%29.91 "Hg10 mi
1:58 PM69 °FBroken clouds.5 mph30%29.91 "Hg10 mi
12:58 PM67 °FBroken clouds.7 mph31%29.93 "Hg10 mi
11:58 AM66 °FBroken clouds.6 mph32%29.95 "Hg10 mi
10:58 AM64 °FBroken clouds.6 mph38%29.96 "Hg10 mi
9:58 AM60 °FBroken clouds.8 mph50%29.96 "Hg10 mi
8:58 AM53 °FBroken clouds.14 mph66%29.95 "Hg10 mi
7:58 AM48 °FPartly cloudy.10 mph82%29.96 "Hg10 mi
6:58 AM44 °FPassing clouds.8 mph90%29.96 "Hg10 mi
5:58 AM45 °FPassing clouds.7 mph87%29.93 "Hg10 mi
4:58 AM48 °FPassing clouds.5 mph81%29.92 "Hg10 mi
3:58 AM49 °FPassing clouds.No wind78%29.87 "Hg10 mi
2:58 AM52 °FPartly cloudy.7 mph75%29.84 "Hg10 mi
1:58 AM53 °FPartly cloudy.8 mph67%29.81 "Hg10 mi
12:58 AM54 °FLight rain. Passing clouds.7 mph66%29.82 "Hg10 mi
11:58 PM
Oct 21
54 °FPassing clouds.5 mph60%29.81 "Hg10 mi
10:58 PM56 °FPassing clouds.1 mph51%29.81 "Hg10 mi
9:58 PM58 °FPassing clouds.7 mph49%29.81 "Hg10 mi
8:58 PM62 °FPassing clouds.8 mph44%29.79 "Hg10 mi
7:58 PM61 °FPassing clouds.3 mph46%29.80 "Hg10 mi
Weather by CustomWeather, © 2014

See weather overviewHow to use our weather pages